Location: Unnamed
(47.6264°N, 122.3366°W)
Time: 21:48:24
(UTC-07:00)

Tianhe-1 - Visible Passes

Search period start: 24 June 2021 00:00
Search period end: 04 July 2021 00:00
Orbit: 375 x 385 km, 41.5° (Epoch: 24 June)

Date Brightness Start Highest point End Pass type
(mag) Time Alt. Az. Time Alt. Az. Time Alt. Az.
24 Jun 2.4 04:12:58 11° SW 04:15:21 25° S 04:18:00 10° ESE visible
25 Jun 2.5 03:14:32 21° SSE 03:14:32 21° SSE 03:16:54 10° ESE visible
26 Jun 2.2 03:48:14 18° SW 03:49:43 26° S 03:52:25 10° ESE visible
27 Jun 2.8 02:49:53 19° SE 02:49:53 19° SE 02:51:20 10° ESE visible
27 Jun 2.4 04:22:24 10° WSW 04:24:58 23° S 04:27:31 10° SE visible
28 Jun 2.1 03:23:47 25° S 03:23:56 25° S 03:26:36 10° SE visible
29 Jun 2.6 03:57:56 16° SW 03:59:04 19° SSW 04:01:24 10° SSE visible
30 Jun 3.6 03:00:22 11° SE 03:00:22 11° SE 03:00:34 10° SE visible
30 Jun 3.2 04:33:30 10° SW 04:34:04 10° SSW 04:34:38 10° SSW visible
02 Jul 3.3 22:17:33 10° S 22:17:37 10° S 22:17:37 10° S visible
03 Jul 2.7 22:50:58 10° SW 22:52:30 18° S 22:52:30 18° S visible
